Home > Weather > Amravati > Past weeks

Flag for India Weather for the Past 2 Weeks in Amravati, Maharashtra, India

Now
77 °F

Scattered clouds.


Feels Like: 78 °F
Forecast: 74 / 90 °F
Wind: 5 mph from Northeast

Location: Nagpur Sonegaon

Current Time: Feb 14, 2016 at 9:37:28 AM

Latest Report: Feb 14, 2016 at 9:00 AM


Visibility: 2 mi

Pressure: 30.01 "Hg

Humidity: 39%

Dew point: 50 °F

Location of AmravatiLocation

Historic Weather in Amravati — Graph

°F

Amravati Temperature Yesterday

Maximum temperature yesterday: 93 °F (at 3:00 PM)
Minimum temperature yesterday: 70 °F (at 7:00 AM)
Average temperature yesterday: 81 °F

High & Low Weather Summary for the Past Weeks

 TemperatureHumidityPressure
High97 °F (Jan 31, 3:30 PM)100% (Feb 3, 7:30 AM)30.12 "Hg (Feb 3, 7:30 AM)
Low57 °F (Feb 6, 6:30 AM)17% (Feb 8, 3:00 PM)29.59 "Hg (Feb 12, 8:30 PM)
Average78 °F39%29.96 "Hg
* Reported Jan 30 8:30 AM — Feb 14 8:30 AM, Amravati, Weather by CustomWeather, © 2016

Note: Actual official high and low records may vary slightly from our data, if they occured in-between our weather recording intervals... More about our weather records

Advertising

Amravati Weather History for the Previous 24 Hours

 ConditionsComfort  
Time TempWeatherWind HumidityBarometerVisibility
8:30 AM
Sun, Feb 14
73 °FScattered clouds.3 mph44%30.01 "Hg2 mi
8:00 AM70 °FScattered clouds.No wind53%30.01 "Hg1 mi
7:30 AM68 °FScattered clouds.No wind53%29.98 "Hg1 mi
7:00 AM66 °FPassing clouds.2 mph52%29.98 "Hg1 mi
6:30 AM66 °FPassing clouds.2 mph56%29.95 "Hg2 mi
6:00 AM64 °FHaze.2 mph60%29.95 "Hg2 mi
5:30 AM64 °FMild.N/A60%29.95 "HgN/A
3:30 AM68 °FHaze.No wind49%29.92 "Hg2 mi
3:00 AM72 °FHaze.3 mph44%29.92 "Hg2 mi
2:30 AM73 °FHaze.3 mph41%29.92 "Hg2 mi
2:00 AM73 °FHaze.3 mph44%29.92 "Hg2 mi
1:30 AM75 °FHaze.6 mph41%29.92 "Hg2 mi
1:00 AM77 °FHaze.6 mph39%29.92 "Hg2 mi
12:00 AM77 °FHaze.8 mph36%29.95 "Hg2 mi
11:30 PM
Sat, Feb 13
73 °FHaze.6 mph44%29.95 "Hg2 mi
10:30 PM77 °FHaze.5 mph39%29.95 "Hg2 mi
10:00 PM77 °FHaze.2 mph44%29.95 "Hg2 mi
9:30 PM77 °FHaze.3 mph44%29.95 "Hg2 mi
8:30 PM81 °FHaze.2 mph39%29.95 "Hg2 mi
8:00 PM81 °FHaze.2 mph39%29.92 "Hg2 mi
7:30 PM82 °FHaze.3 mph37%29.92 "Hg2 mi
7:00 PM82 °FHaze.3 mph35%29.92 "Hg2 mi
6:30 PM86 °FHaze.3 mph31%29.89 "Hg2 mi
6:00 PM90 °FHaze.No wind27%29.89 "Hg3 mi
5:30 PM91 °FHaze.No wind23%29.86 "Hg3 mi
4:30 PM91 °FHaze.3 mph23%29.86 "Hg3 mi
4:00 PM93 °FPassing clouds.8 mph23%29.86 "Hg3 mi
3:30 PM93 °FClear.6 mph23%29.86 "Hg4 mi
3:00 PM93 °FClear.3 mph23%29.86 "Hg4 mi
2:31 PM91 °FClear.7 mph24%29.89 "Hg4 mi
2:30 PM91 °FHot.N/A24%29.89 "HgN/A
2:00 PM90 °FClear.7 mph26%29.89 "Hg4 mi
1:30 PM90 °FClear.6 mph26%29.92 "Hg4 mi
1:00 PM90 °FClear.6 mph24%29.92 "Hg4 mi
12:30 PM88 °FClear.8 mph25%29.95 "Hg4 mi
12:00 PM86 °FClear.5 mph25%29.95 "Hg4 mi
11:30 AM86 °FClear.6 mph25%29.98 "Hg4 mi
10:30 AM82 °FHaze.6 mph30%30.01 "Hg3 mi
9:30 AM79 °FHaze.6 mph34%29.98 "Hg2 mi
9:00 AM77 °FHaze.5 mph39%29.98 "Hg2 mi
Weather by CustomWeather, © 2016

See weather overviewHow to use our weather pages